カタログに戻る

DELTA 1 DEB

運用中LEO
NORAD 42648·DEBRIS·🇺🇸 United States

打ち上げ Jun 12, 1975 から Vandenberg Space Force Base

Loading…

次のパス (今後24時間)

TLE

経年Source: Space-Track

元期: Sep 11, 2026, 14:19 UTC

1 42648U 75052MH  26254.59655155  .00005652  00000-0  70968-2 0  9993
2 42648 100.3403   7.7612 0199152 258.7328  99.1369 13.56595921624131

AllMySatでDELTA 1 DEBをリアルタイム追跡

Download on the App Store